General Aviation Weather

Text Reports

Enter one or more of the following location identifiers separated by a space:

Zip Code, Four-Character ICAO or Three-Character IATA airport codes.

METAR - Aviation Routine Weather Report
KCGE - Cambridge, Maryland
Updated at 9:40 AM GMT on September 20, 2014 (5:40 AM EDT):
METAR KCGE 200940Z AUTO 00000KT 7SM CLR 15/13 A3025 RMK AO1
TAF - Terminal Area Forecast
KCGE - Cambridge, Maryland
Updated at 9:40 AM GMT on September 20, 2014 (5:40 AM EDT):
No TAF is currently available for this location.
Decoded:
No decoded TAF is available.
PIREP - Pilot Weather Report
KCGE - Cambridge, Maryland
Updated at 9:40 AM GMT on September 20, 2014 (5:40 AM EDT):
No PIREP is currently available for this location.
AIRMET - Airmens Meteorological Information
KCGE - Cambridge, Maryland
Updated at 9:40 AM GMT on September 20, 2014 (5:40 AM EDT):
No AIRMET is currently available for this location.
SIGMET - Significant Meteorological Information
KCGE - Cambridge, Maryland
Updated at 9:40 AM GMT on September 20, 2014 (5:40 AM EDT):
No SIGMET is currently available for this location.
NOTAM - Notice to Airmen
KCGE - Cambridge, Maryland
Updated at 9:40 AM GMT on September 20, 2014 (5:40 AM EDT):
No NOTAM is currently available for this location.
Forecast Area
KCGE - Cambridge, Maryland
Updated at 9:40 AM GMT on September 20, 2014 (5:40 AM EDT):
No NOTAM is currently available for this location.
Aviation Weather Maps